| time (UTC) | temp C | wind direction | speed KPH | gust KPH | rain 1hr cm | rain 24hr cm | rain mn cm | humidity % | barometer mb |
| 20260506044534 | 15 | 360 | 0.0 | 9.7 | 0.00 | 0.10 | 0.00 | 55 | 1010.3 |
| 20260506043034 | 15 | 360 | 0.0 | 6.4 | 0.00 | 0.10 | 0.00 | 57 | 1010.3 |
| 20260506041533 | 15 | 360 | 0.0 | 8.0 | 0.00 | 0.10 | 0.00 | 55 | 1010.1 |
| 20260506040032 | 16 | 360 | 0.0 | 6.4 | 0.00 | 0.10 | 0.00 | 54 | 1009.7 |
| 20260506034532 | 16 | 360 | 0.0 | 11.3 | 0.00 | 0.23 | 0.00 | 52 | 1009.4 |
| 20260506033031 | 16 | 360 | 4.8 | 11.3 | 0.00 | 0.23 | 0.00 | 52 | 1009.3 |
| 20260506031531 | 17 | 360 | 3.2 | 9.7 | 0.00 | 0.23 | 0.00 | 51 | 1009.2 |
| 20260506030039 | 17 | 360 | 1.6 | 11.3 | 0.00 | 0.23 | 0.00 | 49 | 1009.0 |
| 20260506024553 | 18 | 360 | 1.6 | 12.9 | 0.00 | 0.25 | 0.00 | 46 | 1008.8 |
| 20260506023030 | 19 | 360 | 6.4 | 16.1 | 0.00 | 0.25 | 0.00 | 42 | 1008.6 |
| 20260506021531 | 20 | 360 | 0.0 | 6.4 | 0.00 | 0.25 | 0.00 | 34 | 1008.6 |
| 20260506020028 | 21 | 360 | 0.0 | 12.9 | 0.00 | 0.25 | 0.00 | 32 | 1008.6 |
| 20260506014527 | 21 | 360 | 4.8 | 11.3 | 0.00 | 0.56 | 0.00 | 32 | 1008.6 |
| 20260506013038 | 21 | 360 | 1.6 | 8.0 | 0.00 | 0.56 | 0.00 | 31 | 1008.5 |
| 20260506011526 | 22 | 360 | 3.2 | 11.3 | 0.00 | 0.56 | 0.00 | 29 | 1008.6 |
| 20260506010026 | 21 | 360 | 0.0 | 8.0 | 0.00 | 0.56 | 0.00 | 30 | 1008.7 |
| 20260506004522 | 21 | 360 | 0.0 | 9.7 | 0.00 | 1.09 | 0.00 | 31 | 1008.7 |
| 20260506003023 | 21 | 360 | 0.0 | 6.4 | 0.00 | 1.09 | 0.00 | 32 | 1008.7 |
| 20260506001522 | 22 | 360 | 0.0 | 9.7 | 0.00 | 1.09 | 0.00 | 30 | 1008.7 |
| 20260506000019 | 22 | 360 | 4.8 | 16.1 | 0.00 | 1.09 | 0.00 | 30 | 1008.9 |
| 20260505234519 | 22 | 360 | 6.4 | 16.1 | 0.00 | 1.09 | 0.00 | 28 | 1008.8 |
| 20260505233020 | 22 | 360 | 0.0 | 12.9 | 0.00 | 1.09 | 0.00 | 33 | 1009.1 |
| 20260505231513 | 22 | 360 | 4.8 | 12.9 | 0.00 | 1.09 | 0.00 | 33 | 1009.1 |
| 20260505230032 | 22 | 360 | 6.4 | 14.5 | 0.00 | 1.09 | 0.00 | 32 | 1009.4 |
| 20260505224509 | 22 | 360 | 1.6 | 9.7 | 0.00 | 1.09 | 0.00 | 37 | 1009.6 |
| 20260505223006 | 23 | 360 | 3.2 | 14.5 | 0.00 | 1.09 | 0.00 | 36 | 1009.8 |
| 20260505221504 | 21 | 360 | 0.0 | 9.7 | 0.00 | 1.09 | 0.00 | 40 | 1010.1 |
| 20260505220003 | 21 | 360 | 1.6 | 9.7 | 0.00 | 1.09 | 0.00 | 39 | 1010.3 |
| 20260505214505 | 22 | 360 | 1.6 | 11.3 | 0.00 | 1.09 | 0.00 | 40 | 1010.6 |
| 20260505213102 | 22 | 360 | 1.6 | 9.7 | 0.00 | 1.09 | 0.00 | 41 | 1010.8 |
| 20260505211557 | 20 | 360 | 0.0 | 8.0 | 0.00 | 1.09 | 0.00 | 43 | 1011.1 |
| 20260505210055 | 20 | 360 | 0.0 | 8.0 | 0.00 | 1.09 | 0.00 | 44 | 1011.2 |
| 20260505204601 | 19 | 360 | 3.2 | 9.7 | 0.00 | 1.12 | 0.00 | 45 | 1011.3 |
| 20260505203100 | 20 | 360 | 0.0 | 11.3 | 0.00 | 1.12 | 0.00 | 44 | 1011.4 |
| 20260505201551 | 20 | 360 | 0.0 | 9.7 | 0.00 | 1.12 | 0.00 | 46 | 1011.5 |
| 20260505200050 | 20 | 360 | 3.2 | 11.3 | 0.00 | 1.12 | 0.00 | 49 | 1011.7 |
| 20260505194602 | 19 | 360 | 0.0 | 9.7 | 0.00 | 1.12 | 0.00 | 48 | 1011.9 |
| 20260505193045 | 18 | 360 | 1.6 | 9.7 | 0.00 | 1.12 | 0.00 | 52 | 1012.1 |
| 20260505191544 | 18 | 360 | 0.0 | 9.7 | 0.00 | 1.12 | 0.00 | 51 | 1012.2 |
| 20260505190043 | 17 | 360 | 0.0 | 6.4 | 0.00 | 1.12 | 0.00 | 57 | 1012.2 |
| 20260505184541 | 18 | 360 | 0.0 | 0.0 | 0.00 | 1.12 | 0.00 | 55 | 1012.2 |
| 20260505183037 | 15 | 360 | 0.0 | 8.0 | 0.00 | 1.12 | 0.00 | 57 | 1012.3 |
| 20260505181534 | 15 | 360 | 0.0 | 3.2 | 0.00 | 1.12 | 0.00 | 62 | 1012.4 |
| 20260505180032 | 15 | 360 | 0.0 | 6.4 | 0.00 | 1.12 | 0.00 | 68 | 1012.4 |
| 20260505174529 | 12 | 360 | 0.0 | 3.2 | 0.00 | 1.12 | 0.00 | 71 | 1012.3 |
| 20260505173039 | 13 | 360 | 0.0 | 3.2 | 0.00 | 1.12 | 0.00 | 71 | 1012.3 |
| 20260505171523 | 12 | 360 | 0.0 | 1.6 | 0.00 | 1.12 | 0.00 | 75 | 1012.1 |
| 20260505170025 | 11 | 360 | 0.0 | 0.0 | 0.00 | 1.12 | 0.00 | 77 | 1012.1 |
| 20260505164537 | 11 | 360 | 0.0 | 0.0 | 0.00 | 1.12 | 0.00 | 79 | 1012.2 |
| 20260505163015 | 10 | 360 | 0.0 | 0.0 | 0.00 | 1.12 | 0.00 | 80 | 1012.1 |
| 20260505161510 | 10 | 360 | 0.0 | 0.0 | 0.00 | 1.12 | 0.00 | 80 | 1011.9 |
| 20260505153009 | 9 | 360 | 0.0 | 0.0 | 0.00 | 1.12 | 0.00 | 81 | 1011.5 |
| 20260505151501 | 9 | 360 | 0.0 | 0.0 | 0.00 | 1.12 | 0.00 | 83 | 1011.4 |
| 20260505124540 | 7 | 360 | 0.0 | 0.0 | 0.00 | 1.12 | 0.00 | 88 | 1010.0 |
| 20260505123040 | 7 | 360 | 0.0 | 0.0 | 0.00 | 1.12 | 0.00 | 88 | 1009.9 |
| 20260505121542 | 7 | 360 | 0.0 | 0.0 | 0.00 | 1.12 | 0.00 | 88 | 1010.0 |
| 20260505120039 | 7 | 360 | 0.0 | 0.0 | 0.00 | 1.12 | 0.00 | 88 | 1009.9 |
| 20260505114544 | 7 | 360 | 0.0 | 0.0 | 0.00 | 1.12 | 0.00 | 88 | 1009.9 |
| 20260505113038 | 7 | 360 | 0.0 | 0.0 | 0.00 | 1.12 | 0.00 | 88 | 1010.0 |
| 20260505111549 | 7 | 360 | 0.0 | 0.0 | 0.00 | 1.12 | 0.00 | 89 | 1009.8 |
| 20260505101535 | 7 | 360 | 0.0 | 0.0 | 0.00 | 1.12 | 0.00 | 89 | 1010.0 |
| 20260505100042 | 7 | 360 | 0.0 | 0.0 | 0.00 | 1.12 | 0.00 | 90 | 1009.9 |
| 20260505094532 | 7 | 360 | 0.0 | 0.0 | 0.00 | 1.12 | 0.00 | 91 | 1009.9 |
| 20260505093033 | 7 | 360 | 0.0 | 0.0 | 0.00 | 1.12 | 0.00 | 91 | 1010.1 |
| 20260505091540 | 7 | 360 | 0.0 | 0.0 | 0.00 | 1.12 | 0.00 | 91 | 1010.1 |
| 20260505090047 | 7 | 360 | 0.0 | 0.0 | 0.00 | 1.12 | 0.00 | 91 | 1010.1 |
| 20260505084534 | 7 | 360 | 0.0 | 0.0 | 0.00 | 1.12 | 0.00 | 91 | 1010.3 |
| 20260505083035 | 7 | 360 | 0.0 | 0.0 | 0.00 | 1.12 | 0.00 | 91 | 1010.4 |
| 20260505081533 | 7 | 360 | 0.0 | 0.0 | 0.00 | 1.12 | 0.00 | 91 | 1010.5 |
| 20260505080035 | 7 | 360 | 0.0 | 0.0 | 0.00 | 1.12 | 0.00 | 91 | 1010.5 |
| 20260505074522 | 7 | 360 | 0.0 | 0.0 | 0.03 | 1.12 | 0.00 | 90 | 1010.3 |
| 20260505073020 | 7 | 360 | 0.0 | 1.6 | 0.05 | 1.12 | 0.00 | 90 | 1010.6 |
| 20260505071525 | 7 | 360 | 0.0 | 1.6 | 0.05 | 1.12 | 0.00 | 90 | 1010.8 |
| 20260505070020 | 7 | 360 | 0.0 | 1.6 | 0.05 | 1.12 | 0.00 | 90 | 1010.6 |
| 20260505064515 | 7 | 360 | 0.0 | 0.0 | 0.03 | 1.09 | 1.09 | 90 | 1010.0 |
| 20260505063016 | 7 | 360 | 0.0 | 0.0 | 0.00 | 1.07 | 1.07 | 89 | 1009.9 |
| 20260505061525 | 7 | 360 | 0.0 | 0.0 | 0.03 | 1.07 | 1.07 | 89 | 1010.0 |
| 20260505060017 | 7 | 360 | 0.0 | 0.0 | 0.03 | 1.07 | 1.07 | 87 | 1009.8 |
| 20260505054521 | 7 | 360 | 0.0 | 1.6 | 0.03 | 1.07 | 1.07 | 87 | 1009.9 |
| 20260505053013 | 7 | 360 | 0.0 | 8.0 | 0.03 | 1.07 | 1.07 | 86 | 1010.1 |
| 20260505051512 | 7 | 360 | 0.0 | 12.9 | 0.00 | 1.04 | 1.04 | 85 | 1010.4 |